����������;��������(kWh)
2017-10-02 00:00;78,9
2017-10-02 00:15;80,45
2017-10-02 00:30;80,25
2017-10-02 00:45;80,8
2017-10-02 01:00;79,05
2017-10-02 01:15;79,65
2017-10-02 01:30;75,45
2017-10-02 01:45;76,9
2017-10-02 02:00;75,2
2017-10-02 02:15;75,4
2017-10-02 02:30;75,3
2017-10-02 02:45;73,4
2017-10-02 03:00;76
2017-10-02 03:15;73,4
2017-10-02 03:30;76
2017-10-02 03:45;74,75
2017-10-02 04:00;73,55
2017-10-02 04:15;74,35
2017-10-02 04:30;73,45
2017-10-02 04:45;74
2017-10-02 05:00;73,9
2017-10-02 05:15;75,4
2017-10-02 05:30;77,65
2017-10-02 05:45;74,45
2017-10-02 06:00;81,65
2017-10-02 06:15;78,5
2017-10-02 06:30;84,25
2017-10-02 06:45;83,35
2017-10-02 07:00;85
2017-10-02 07:15;83,15
2017-10-02 07:30;116,45
2017-10-02 07:45;90,8
2017-10-02 08:00;89,1
2017-10-02 08:15;90,85
2017-10-02 08:30;99,4
2017-10-02 08:45;116,45
2017-10-02 09:00;125,8
2017-10-02 09:15;129,65
2017-10-02 09:30;129,8
2017-10-02 09:45;135,9
2017-10-02 10:00;139,05
2017-10-02 10:15;141,7
2017-10-02 10:30;143,85
2017-10-02 10:45;141
2017-10-02 11:00;145,95
2017-10-02 11:15;149,45
2017-10-02 11:30;149,7
2017-10-02 11:45;156,35
2017-10-02 12:00;155,55
2017-10-02 12:15;154,4
2017-10-02 12:30;156,75
2017-10-02 12:45;157,95
2017-10-02 13:00;157,25
2017-10-02 13:15;157,9
2017-10-02 13:30;158,55
2017-10-02 13:45;161,9
2017-10-02 14:00;164,05
2017-10-02 14:15;163,4
2017-10-02 14:30;161,9
2017-10-02 14:45;157,5
2017-10-02 15:00;158,45
2017-10-02 15:15;152,3
2017-10-02 15:30;147
2017-10-02 15:45;149,1
2017-10-02 16:00;148,6
2017-10-02 16:15;144,35
2017-10-02 16:30;140,15
2017-10-02 16:45;134,3
2017-10-02 17:00;135,15
2017-10-02 17:15;131,1
2017-10-02 17:30;127
2017-10-02 17:45;127,2
2017-10-02 18:00;124,25
2017-10-02 18:15;122,9
2017-10-02 18:30;117,3
2017-10-02 18:45;118
2017-10-02 19:00;114,2
2017-10-02 19:15;116,4
2017-10-02 19:30;109,05
2017-10-02 19:45;115,15
2017-10-02 20:00;111,4
2017-10-02 20:15;107,75
2017-10-02 20:30;106,65
2017-10-02 20:45;108,6
2017-10-02 21:00;106,4
2017-10-02 21:15;104,2
2017-10-02 21:30;102
2017-10-02 21:45;100
2017-10-02 22:00;96,3
2017-10-02 22:15;95,55
2017-10-02 22:30;95,05
2017-10-02 22:45;88,45
2017-10-02 23:00;88,65
2017-10-02 23:15;88,3
2017-10-02 23:30;85,9
2017-10-02 23:45;84,7
2017-10-03 00:00;83,9
2017-10-03 00:15;86
2017-10-03 00:30;85,6
2017-10-03 00:45;83,55
2017-10-03 01:00;83,45
2017-10-03 01:15;81,9
2017-10-03 01:30;80,15
2017-10-03 01:45;80,2
2017-10-03 02:00;77,25
2017-10-03 02:15;77,75
2017-10-03 02:30;79,6
2017-10-03 02:45;77,15
2017-10-03 03:00;78
2017-10-03 03:15;74,95
2017-10-03 03:30;78
2017-10-03 03:45;76,75
2017-10-03 04:00;78,5
2017-10-03 04:15;81,85
2017-10-03 04:30;78,95
2017-10-03 04:45;80,5
2017-10-03 05:00;80,3
2017-10-03 05:15;82,2
2017-10-03 05:30;82,8
2017-10-03 05:45;81,55
2017-10-03 06:00;85,65
2017-10-03 06:15;85,4
2017-10-03 06:30;89,45
2017-10-03 06:45;90,45
2017-10-03 07:00;91,2
2017-10-03 07:15;89,15
2017-10-03 07:30;92,85
2017-10-03 07:45;94,15
2017-10-03 08:00;100,4
2017-10-03 08:15;100,4
2017-10-03 08:30;102,7
2017-10-03 08:45;111,3
2017-10-03 09:00;114,4
2017-10-03 09:15;124,65
2017-10-03 09:30;131
2017-10-03 09:45;132,95
2017-10-03 10:00;139,3
2017-10-03 10:15;142,15
2017-10-03 10:30;143,4
2017-10-03 10:45;146,8
2017-10-03 11:00;147,15
2017-10-03 11:15;151,95
2017-10-03 11:30;149,65
2017-10-03 11:45;150,9
2017-10-03 12:00;148,45
2017-10-03 12:15;153,05
2017-10-03 12:30;158,85
2017-10-03 12:45;156,6
2017-10-03 13:00;159
2017-10-03 13:15;159,9
2017-10-03 13:30;163
2017-10-03 13:45;167,75
2017-10-03 14:00;162,45
2017-10-03 14:15;165,75
2017-10-03 14:30;164
2017-10-03 14:45;164,25
2017-10-03 15:00;157,15
2017-10-03 15:15;151,4
2017-10-03 15:30;147,45
2017-10-03 15:45;141,8
2017-10-03 16:00;144,9
2017-10-03 16:15;139,2
2017-10-03 16:30;142,65
2017-10-03 16:45;137,15
2017-10-03 17:00;131,1
2017-10-03 17:15;130,15
2017-10-03 17:30;127,35
2017-10-03 17:45;129,3
2017-10-03 18:00;129,85
2017-10-03 18:15;123,45
2017-10-03 18:30;119,35
2017-10-03 18:45;117,85
2017-10-03 19:00;124,4
2017-10-03 19:15;123,05
2017-10-03 19:30;121,95
2017-10-03 19:45;122,6
2017-10-03 20:00;119,35
2017-10-03 20:15;120,85
2017-10-03 20:30;115,1
2017-10-03 20:45;112,25
2017-10-03 21:00;112,25
2017-10-03 21:15;106,6
2017-10-03 21:30;107,15
2017-10-03 21:45;102,2
2017-10-03 22:00;97,45
2017-10-03 22:15;104,4
2017-10-03 22:30;94,95
2017-10-03 22:45;90,65
2017-10-03 23:00;90,7
2017-10-03 23:15;86,3
2017-10-03 23:30;85,3
2017-10-03 23:45;80,8
2017-10-04 00:00;78
2017-10-04 00:15;81,25
2017-10-04 00:30;78,85
2017-10-04 00:45;79,3
2017-10-04 01:00;78,4
2017-10-04 01:15;79,65
2017-10-04 01:30;79
2017-10-04 01:45;81,05
2017-10-04 02:00;79,1
2017-10-04 02:15;78,55
2017-10-04 02:30;78,5
2017-10-04 02:45;77,35
2017-10-04 03:00;77,4
2017-10-04 03:15;77,4
2017-10-04 03:30;77,6
2017-10-04 03:45;79,75
2017-10-04 04:00;78,1
2017-10-04 04:15;78,35
2017-10-04 04:30;76,2
2017-10-04 04:45;76,9
2017-10-04 05:00;77,15
2017-10-04 05:15;80,95
2017-10-04 05:30;80,3
2017-10-04 05:45;78,7
2017-10-04 06:00;85,8
2017-10-04 06:15;89,6
2017-10-04 06:30;93,5
2017-10-04 06:45;96
2017-10-04 07:00;97,1
2017-10-04 07:15;93
2017-10-04 07:30;92,4
2017-10-04 07:45;93,55
2017-10-04 08:00;91,05
2017-10-04 08:15;91,6
2017-10-04 08:30;103,2
2017-10-04 08:45;110,35
2017-10-04 09:00;116,4
2017-10-04 09:15;120,3
2017-10-04 09:30;121,75
2017-10-04 09:45;125,7
2017-10-04 10:00;132,4
2017-10-04 10:15;138,6
2017-10-04 10:30;142,7
2017-10-04 10:45;142,8
2017-10-04 11:00;141,55
2017-10-04 11:15;145,65
2017-10-04 11:30;149,35
2017-10-04 11:45;153,65
2017-10-04 12:00;152,95
2017-10-04 12:15;151,05
2017-10-04 12:30;153,85
2017-10-04 12:45;160,65
2017-10-04 13:00;154,2
2017-10-04 13:15;164,6
2017-10-04 13:30;206,45
2017-10-04 13:45;201,4
2017-10-04 14:00;170,95
2017-10-04 14:15;161,1
2017-10-04 14:30;164,4
2017-10-04 14:45;163,5
2017-10-04 15:00;149,4
2017-10-04 15:15;153,8
2017-10-04 15:30;153,2
2017-10-04 15:45;142,35
2017-10-04 16:00;147
2017-10-04 16:15;146,9
2017-10-04 16:30;148,55
2017-10-04 16:45;134,2
2017-10-04 17:00;138,3
2017-10-04 17:15;132
2017-10-04 17:30;129,7
2017-10-04 17:45;124,9
2017-10-04 18:00;122,05
2017-10-04 18:15;120,85
2017-10-04 18:30;113,4
2017-10-04 18:45;114,25
2017-10-04 19:00;112,35
2017-10-04 19:15;113,2
2017-10-04 19:30;115,65
2017-10-04 19:45;111,85
2017-10-04 20:00;107,45
2017-10-04 20:15;107,05
2017-10-04 20:30;103,25
2017-10-04 20:45;102,5
2017-10-04 21:00;100,5
2017-10-04 21:15;96,4
2017-10-04 21:30;98,5
2017-10-04 21:45;93,85
2017-10-04 22:00;88,9
2017-10-04 22:15;94
2017-10-04 22:30;92,2
2017-10-04 22:45;91,05
2017-10-04 23:00;92,05
2017-10-04 23:15;85,5
2017-10-04 23:30;85,4
2017-10-04 23:45;83,45
2017-10-05 00:00;83,45
2017-10-05 00:15;83,3
2017-10-05 00:30;83,5
2017-10-05 00:45;82,55
2017-10-05 01:00;86,7
2017-10-05 01:15;86,65
2017-10-05 01:30;84,8
2017-10-05 01:45;87,7
2017-10-05 02:00;85,4
2017-10-05 02:15;84,1
2017-10-05 02:30;86,2
2017-10-05 02:45;83,4
2017-10-05 03:00;86,5
2017-10-05 03:15;84,15
2017-10-05 03:30;85,7
2017-10-05 03:45;84,95
2017-10-05 04:00;84,7
2017-10-05 04:15;85,5
2017-10-05 04:30;82,9
2017-10-05 04:45;84,5
2017-10-05 05:00;82,75
2017-10-05 05:15;86,1
2017-10-05 05:30;86,55
2017-10-05 05:45;84,85
2017-10-05 06:00;88,85
2017-10-05 06:15;83,75
2017-10-05 06:30;89,3
2017-10-05 06:45;92,2
2017-10-05 07:00;100,25
2017-10-05 07:15;100,2
2017-10-05 07:30;98,05
2017-10-05 07:45;103,75
2017-10-05 08:00;103,6
2017-10-05 08:15;105,1
2017-10-05 08:30;107,1
2017-10-05 08:45;114,7
2017-10-05 09:00;120,95
2017-10-05 09:15;130,95
2017-10-05 09:30;134,95
2017-10-05 09:45;132,45
2017-10-05 10:00;136,5
2017-10-05 10:15;136,85
2017-10-05 10:30;142,5
2017-10-05 10:45;152,65
2017-10-05 11:00;151,9
2017-10-05 11:15;155,6
2017-10-05 11:30;157,45
2017-10-05 11:45;165,65
2017-10-05 12:00;169,2
2017-10-05 12:15;163,1
2017-10-05 12:30;152,7
2017-10-05 12:45;164,05
2017-10-05 13:00;163,6
2017-10-05 13:15;171,3
2017-10-05 13:30;167,6
2017-10-05 13:45;164,95
2017-10-05 14:00;162,1
2017-10-05 14:15;169,1
2017-10-05 14:30;170,8
2017-10-05 14:45;167,2
2017-10-05 15:00;163,6
2017-10-05 15:15;161,3
2017-10-05 15:30;165,45
2017-10-05 15:45;156,6
2017-10-05 16:00;154,25
2017-10-05 16:15;146,95
2017-10-05 16:30;144,55
2017-10-05 16:45;139
2017-10-05 17:00;135,1
2017-10-05 17:15;134,95
2017-10-05 17:30;134,85
2017-10-05 17:45;129,15
2017-10-05 18:00;129,75
2017-10-05 18:15;123,8
2017-10-05 18:30;120,25
2017-10-05 18:45;119,75
2017-10-05 19:00;120,4
2017-10-05 19:15;124,35
2017-10-05 19:30;118,1
2017-10-05 19:45;116,6
2017-10-05 20:00;119
2017-10-05 20:15;117,25
2017-10-05 20:30;113,2
2017-10-05 20:45;110,6
2017-10-05 21:00;110,9
2017-10-05 21:15;105,45
2017-10-05 21:30;103,9
2017-10-05 21:45;101,75
2017-10-05 22:00;96,8
2017-10-05 22:15;102,8
2017-10-05 22:30;104,55
2017-10-05 22:45;100,45
2017-10-05 23:00;103,7
2017-10-05 23:15;93,05
2017-10-05 23:30;89,45
2017-10-05 23:45;87,65
2017-10-06 00:00;84,3
2017-10-06 00:15;90,1
2017-10-06 00:30;85,7
2017-10-06 00:45;86,75
2017-10-06 01:00;83,8
2017-10-06 01:15;85,15
2017-10-06 01:30;85,75
2017-10-06 01:45;84,4
2017-10-06 02:00;85,3
2017-10-06 02:15;83,3
2017-10-06 02:30;86,35
2017-10-06 02:45;82,95
2017-10-06 03:00;86,15
2017-10-06 03:15;82,8
2017-10-06 03:30;83,85
2017-10-06 03:45;84,55
2017-10-06 04:00;83,8
2017-10-06 04:15;85,25
2017-10-06 04:30;82,7
2017-10-06 04:45;83,7
2017-10-06 05:00;82,45
2017-10-06 05:15;86,6
2017-10-06 05:30;87,2
2017-10-06 05:45;85,5
2017-10-06 06:00;86,8
2017-10-06 06:15;87,35
2017-10-06 06:30;89,1
2017-10-06 06:45;96,05
2017-10-06 07:00;96,25
2017-10-06 07:15;104,4
2017-10-06 07:30;100,95
2017-10-06 07:45;102,85
2017-10-06 08:00;106,1
2017-10-06 08:15;106,2
2017-10-06 08:30;109,15
2017-10-06 08:45;115,35
2017-10-06 09:00;116,9
2017-10-06 09:15;124
2017-10-06 09:30;127,05
2017-10-06 09:45;131,95
2017-10-06 10:00;136,5
2017-10-06 10:15;141,2
2017-10-06 10:30;145,8
2017-10-06 10:45;148
2017-10-06 11:00;158,7
2017-10-06 11:15;159
2017-10-06 11:30;159,2
2017-10-06 11:45;153,3
2017-10-06 12:00;154,3
2017-10-06 12:15;154,3
2017-10-06 12:30;159,8
2017-10-06 12:45;163,8
2017-10-06 13:00;165,25
2017-10-06 13:15;165,95
2017-10-06 13:30;163,5
2017-10-06 13:45;161,65
2017-10-06 14:00;161,55
2017-10-06 14:15;158,5
2017-10-06 14:30;160,65
2017-10-06 14:45;153,35
2017-10-06 15:00;154,25
2017-10-06 15:15;147,95
2017-10-06 15:30;149,2
2017-10-06 15:45;147,2
2017-10-06 16:00;146,1
2017-10-06 16:15;136,15
2017-10-06 16:30;132,75
2017-10-06 16:45;129,9
2017-10-06 17:00;125,7
2017-10-06 17:15;127,85
2017-10-06 17:30;126,85
2017-10-06 17:45;125,8
2017-10-06 18:00;121,9
2017-10-06 18:15;116
2017-10-06 18:30;115,3
2017-10-06 18:45;113,1
2017-10-06 19:00;111,8
2017-10-06 19:15;112,35
2017-10-06 19:30;112
2017-10-06 19:45;115,55
2017-10-06 20:00;111,7
2017-10-06 20:15;110,85
2017-10-06 20:30;110,55
2017-10-06 20:45;107,15
2017-10-06 21:00;105,6
2017-10-06 21:15;103,55
2017-10-06 21:30;103,9
2017-10-06 21:45;100,05
2017-10-06 22:00;92,55
2017-10-06 22:15;98,05
2017-10-06 22:30;95,7
2017-10-06 22:45;90,35
2017-10-06 23:00;90,2
2017-10-06 23:15;83,4
2017-10-06 23:30;87,8
2017-10-06 23:45;88,55
2017-10-07 00:00;83,3
2017-10-07 00:15;81,95
2017-10-07 00:30;82,5
2017-10-07 00:45;84,25
2017-10-07 01:00;83,2
2017-10-07 01:15;82,45
2017-10-07 01:30;83,8
2017-10-07 01:45;85
2017-10-07 02:00;82,6
2017-10-07 02:15;85
2017-10-07 02:30;83,4
2017-10-07 02:45;82,6
2017-10-07 03:00;84,1
2017-10-07 03:15;83,45
2017-10-07 03:30;85
2017-10-07 03:45;82,95
2017-10-07 04:00;83,75
2017-10-07 04:15;82,1
2017-10-07 04:30;82,75
2017-10-07 04:45;84,5
2017-10-07 05:00;79,25
2017-10-07 05:15;79,75
2017-10-07 05:30;78,7
2017-10-07 05:45;80,4
2017-10-07 06:00;82,35
2017-10-07 06:15;81,65
2017-10-07 06:30;85,9
2017-10-07 06:45;82,65
2017-10-07 07:00;83,85
2017-10-07 07:15;83,3
2017-10-07 07:30;77,25
2017-10-07 07:45;73,75
2017-10-07 08:00;74,7
2017-10-07 08:15;75,25
2017-10-07 08:30;73,7
2017-10-07 08:45;76,25
2017-10-07 09:00;75,15
2017-10-07 09:15;74,9
2017-10-07 09:30;76,05
2017-10-07 09:45;76,15
2017-10-07 10:00;77,35
2017-10-07 10:15;76,45
2017-10-07 10:30;77,3
2017-10-07 10:45;81,55
2017-10-07 11:00;81,85
2017-10-07 11:15;86,15
2017-10-07 11:30;85,35
2017-10-07 11:45;89,85
2017-10-07 12:00;84,8
2017-10-07 12:15;85,4
2017-10-07 12:30;84,7
2017-10-07 12:45;80,6
2017-10-07 13:00;82,15
2017-10-07 13:15;80,95
2017-10-07 13:30;89,45
2017-10-07 13:45;83,35
2017-10-07 14:00;80,9
2017-10-07 14:15;81,7
2017-10-07 14:30;84,4
2017-10-07 14:45;85,8
2017-10-07 15:00;82,8
2017-10-07 15:15;86,25
2017-10-07 15:30;80,2
2017-10-07 15:45;81,75
2017-10-07 16:00;82,7
2017-10-07 16:15;83,65
2017-10-07 16:30;83,95
2017-10-07 16:45;83,25
2017-10-07 17:00;84,35
2017-10-07 17:15;82,85
2017-10-07 17:30;84,9
2017-10-07 17:45;88,35
2017-10-07 18:00;85,15
2017-10-07 18:15;82,6
2017-10-07 18:30;81,85
2017-10-07 18:45;85,95
2017-10-07 19:00;83,6
2017-10-07 19:15;97,45
2017-10-07 19:30;93,6
2017-10-07 19:45;96,45
2017-10-07 20:00;94,25
2017-10-07 20:15;97,75
2017-10-07 20:30;96,7
2017-10-07 20:45;94,65
2017-10-07 21:00;91,35
2017-10-07 21:15;90,05
2017-10-07 21:30;90,4
2017-10-07 21:45;89,65
2017-10-07 22:00;89,1
2017-10-07 22:15;91,45
2017-10-07 22:30;90,75
2017-10-07 22:45;91,15
2017-10-07 23:00;90,45
2017-10-07 23:15;82,15
2017-10-07 23:30;82,9
2017-10-07 23:45;79,65
2017-10-08 00:00;79,55
2017-10-08 00:15;82,1
2017-10-08 00:30;79,25
2017-10-08 00:45;81,65
2017-10-08 01:00;78,3
2017-10-08 01:15;81,8
2017-10-08 01:30;78,95
2017-10-08 01:45;80,05
2017-10-08 02:00;79,1
2017-10-08 02:15;80,05
2017-10-08 02:30;79,45
2017-10-08 02:45;79,8
2017-10-08 03:00;79,1
2017-10-08 03:15;80,3
2017-10-08 03:30;78,95
2017-10-08 03:45;81,3
2017-10-08 04:00;79,3
2017-10-08 04:15;80,6
2017-10-08 04:30;78,95
2017-10-08 04:45;80,15
2017-10-08 05:00;79,75
2017-10-08 05:15;79,65
2017-10-08 05:30;80,85
2017-10-08 05:45;77,9
2017-10-08 06:00;81,55
2017-10-08 06:15;80,65
2017-10-08 06:30;87,1
2017-10-08 06:45;84,2
2017-10-08 07:00;85,35
2017-10-08 07:15;84,05
2017-10-08 07:30;83,1
2017-10-08 07:45;79,1
2017-10-08 08:00;81,1
2017-10-08 08:15;73,55
2017-10-08 08:30;75,25
2017-10-08 08:45;72,65
2017-10-08 09:00;72,5
2017-10-08 09:15;70,7
2017-10-08 09:30;74,15
2017-10-08 09:45;72,8
2017-10-08 10:00;74,25
2017-10-08 10:15;77,9
2017-10-08 10:30;77
2017-10-08 10:45;83
2017-10-08 11:00;80,05
2017-10-08 11:15;81,9
2017-10-08 11:30;77,7
2017-10-08 11:45;80,3
2017-10-08 12:00;82,4
2017-10-08 12:15;78
2017-10-08 12:30;77,7
2017-10-08 12:45;78,05
2017-10-08 13:00;81,85
2017-10-08 13:15;83,5
2017-10-08 13:30;81,45
2017-10-08 13:45;83,05
2017-10-08 14:00;84,55
2017-10-08 14:15;85,45
2017-10-08 14:30;84,55
2017-10-08 14:45;87,1
2017-10-08 15:00;89,15
2017-10-08 15:15;86
2017-10-08 15:30;90,4
2017-10-08 15:45;86,65
2017-10-08 16:00;84,95
2017-10-08 16:15;83,45
2017-10-08 16:30;88,4
2017-10-08 16:45;82,8
2017-10-08 17:00;86,1
2017-10-08 17:15;84,15
2017-10-08 17:30;85,4
2017-10-08 17:45;84,8
2017-10-08 18:00;86,4
2017-10-08 18:15;84,65
2017-10-08 18:30;83,8
2017-10-08 18:45;86,7
2017-10-08 19:00;88,25
2017-10-08 19:15;88,3
2017-10-08 19:30;92
2017-10-08 19:45;91,3
2017-10-08 20:00;90
2017-10-08 20:15;89,7
2017-10-08 20:30;92,55
2017-10-08 20:45;91,9
2017-10-08 21:00;91,15
2017-10-08 21:15;89,75
2017-10-08 21:30;89,8
2017-10-08 21:45;89,25
2017-10-08 22:00;82,8
2017-10-08 22:15;86,65
2017-10-08 22:30;84,55
2017-10-08 22:45;85,55
2017-10-08 23:00;83,3
2017-10-08 23:15;81,05
2017-10-08 23:30;78,6
2017-10-08 23:45;79,35

